Year,Month,Day,Hour,Minute,Value (Times are PST for windspeed in km/hr)
2014,02,15,00,00,0.00
2014,02,15,00,01,0.00
2014,02,15,00,02,0.00
2014,02,15,00,03,0.00
2014,02,15,00,04,0.40
2014,02,15,00,05,0.20
2014,02,15,00,06,0.10
2014,02,15,00,07,0.20
2014,02,15,00,08,0.30
2014,02,15,00,09,0.00
2014,02,15,00,10,0.00
2014,02,15,00,11,0.40
2014,02,15,00,12,0.00
2014,02,15,00,13,0.10
2014,02,15,00,14,0.20
2014,02,15,00,15,0.10
2014,02,15,00,16,0.00
2014,02,15,00,17,0.00
2014,02,15,00,18,0.00
2014,02,15,00,19,0.00
2014,02,15,00,20,0.00
2014,02,15,00,21,0.00
2014,02,15,00,22,0.00
2014,02,15,00,23,0.00
2014,02,15,00,24,0.00
2014,02,15,00,25,0.00
2014,02,15,00,26,0.00
2014,02,15,00,27,0.00
2014,02,15,00,28,0.00
2014,02,15,00,29,0.00
2014,02,15,00,30,0.00
2014,02,15,00,31,0.00
2014,02,15,00,32,0.00
2014,02,15,00,33,0.10
2014,02,15,00,34,0.80
2014,02,15,00,35,0.20
2014,02,15,00,36,0.20
2014,02,15,00,37,0.10
2014,02,15,00,38,0.10
2014,02,15,00,39,0.00
2014,02,15,00,40,0.00
2014,02,15,00,41,0.10
2014,02,15,00,42,0.40
2014,02,15,00,43,0.10
2014,02,15,00,44,0.00
2014,02,15,00,45,0.10
2014,02,15,00,46,0.20
2014,02,15,00,47,0.40
2014,02,15,00,48,0.60
2014,02,15,00,49,0.30
2014,02,15,00,50,0.40
2014,02,15,00,51,0.20
2014,02,15,00,52,0.00
2014,02,15,00,53,0.00
2014,02,15,00,54,0.00
2014,02,15,00,55,0.00
2014,02,15,00,56,0.00
2014,02,15,00,57,0.00
2014,02,15,00,58,0.00
2014,02,15,00,59,0.00
2014,02,15,01,00,0.00
2014,02,15,01,01,0.00
2014,02,15,01,02,0.00
2014,02,15,01,03,0.00
2014,02,15,01,04,0.00
2014,02,15,01,05,0.00
2014,02,15,01,06,0.00
2014,02,15,01,07,0.00
2014,02,15,01,08,0.00
2014,02,15,01,09,0.00
2014,02,15,01,10,0.00
2014,02,15,01,11,0.00
2014,02,15,01,12,0.00
2014,02,15,01,13,0.00
2014,02,15,01,14,0.00
2014,02,15,01,15,0.00
2014,02,15,01,16,0.00
2014,02,15,01,17,0.00
2014,02,15,01,18,0.00
2014,02,15,01,19,0.00
2014,02,15,01,20,0.00
2014,02,15,01,21,0.00
2014,02,15,01,22,0.00
2014,02,15,01,23,0.00
2014,02,15,01,24,0.40
2014,02,15,01,25,0.00
2014,02,15,01,26,0.00
2014,02,15,01,27,0.00
2014,02,15,01,28,0.00
2014,02,15,01,29,0.10
2014,02,15,01,30,0.10
2014,02,15,01,31,0.50
2014,02,15,01,32,1.50
2014,02,15,01,33,2.10
2014,02,15,01,34,1.70
2014,02,15,01,35,2.80
2014,02,15,01,36,3.40
2014,02,15,01,37,3.80
2014,02,15,01,38,6.50
2014,02,15,01,39,3.20
2014,02,15,01,40,4.20
2014,02,15,01,41,2.70
2014,02,15,01,42,7.20
2014,02,15,01,43,6.50
2014,02,15,01,44,5.90
2014,02,15,01,45,4.10
2014,02,15,01,46,7.60
2014,02,15,01,47,5.10
2014,02,15,01,48,3.20
2014,02,15,01,49,6.00
2014,02,15,01,50,6.00
2014,02,15,01,51,6.10
2014,02,15,01,52,4.70
2014,02,15,01,53,4.20
2014,02,15,01,54,3.00
2014,02,15,01,55,5.90
2014,02,15,01,56,5.10
2014,02,15,01,57,2.30
2014,02,15,01,58,1.50
2014,02,15,01,59,4.70
2014,02,15,02,00,3.90
2014,02,15,02,01,2.50
2014,02,15,02,02,4.60
2014,02,15,02,03,4.30
2014,02,15,02,04,3.10
2014,02,15,02,05,3.10
2014,02,15,02,06,4.70
2014,02,15,02,07,4.10
2014,02,15,02,08,1.30
2014,02,15,02,09,1.10
2014,02,15,02,10,1.80
2014,02,15,02,11,3.10
2014,02,15,02,12,2.60
2014,02,15,02,13,3.20
2014,02,15,02,14,3.10
2014,02,15,02,15,2.80
2014,02,15,02,16,4.20
2014,02,15,02,17,1.90
2014,02,15,02,18,1.40
2014,02,15,02,19,4.10
2014,02,15,02,20,4.60
2014,02,15,02,21,3.90
2014,02,15,02,22,3.70
2014,02,15,02,23,2.90
2014,02,15,02,24,2.60
2014,02,15,02,25,5.00
2014,02,15,02,26,4.20
2014,02,15,02,27,3.20
2014,02,15,02,28,2.30
2014,02,15,02,29,3.20
2014,02,15,02,30,1.80
2014,02,15,02,31,4.50
2014,02,15,02,32,3.10
2014,02,15,02,33,3.70
2014,02,15,02,34,2.40
2014,02,15,02,35,3.40
2014,02,15,02,36,5.40
2014,02,15,02,37,4.50
2014,02,15,02,38,4.10
2014,02,15,02,39,5.50
2014,02,15,02,40,5.10
2014,02,15,02,41,4.00
2014,02,15,02,42,6.10
2014,02,15,02,43,3.00
2014,02,15,02,44,1.70
2014,02,15,02,45,0.30
2014,02,15,02,46,1.70
2014,02,15,02,47,0.90
2014,02,15,02,48,0.30
2014,02,15,02,49,0.20
2014,02,15,02,50,1.80
2014,02,15,02,51,3.60
2014,02,15,02,52,5.60
2014,02,15,02,53,2.70
2014,02,15,02,54,0.20
2014,02,15,02,55,0.10
2014,02,15,02,56,0.70
2014,02,15,02,57,1.10
2014,02,15,02,58,3.50
2014,02,15,02,59,6.50
2014,02,15,03,00,5.40
2014,02,15,03,01,2.30
2014,02,15,03,02,3.20
2014,02,15,03,03,3.60
2014,02,15,03,04,2.30
2014,02,15,03,05,1.70
2014,02,15,03,06,1.60
2014,02,15,03,07,4.00
2014,02,15,03,08,4.10
2014,02,15,03,09,2.40
2014,02,15,03,10,2.60
2014,02,15,03,11,2.70
2014,02,15,03,12,3.30
2014,02,15,03,13,2.00
2014,02,15,03,14,5.60
2014,02,15,03,15,5.80
2014,02,15,03,16,5.60
2014,02,15,03,17,3.10
2014,02,15,03,18,4.30
2014,02,15,03,19,5.40
2014,02,15,03,20,5.30
2014,02,15,03,21,6.10
2014,02,15,03,22,5.90
2014,02,15,03,23,6.50
2014,02,15,03,24,3.60
2014,02,15,03,25,5.60
2014,02,15,03,26,5.20
2014,02,15,03,27,5.50
2014,02,15,03,28,7.20
2014,02,15,03,29,8.40
2014,02,15,03,30,6.80
2014,02,15,03,31,3.10
2014,02,15,03,32,5.20
2014,02,15,03,33,6.00
2014,02,15,03,34,4.80
2014,02,15,03,35,1.40
2014,02,15,03,36,3.50
2014,02,15,03,37,4.70
2014,02,15,03,38,4.30
2014,02,15,03,39,0.30
2014,02,15,03,40,1.30
2014,02,15,03,41,0.50
2014,02,15,03,42,1.40
2014,02,15,03,43,1.80
2014,02,15,03,44,0.30
2014,02,15,03,45,0.10
2014,02,15,03,46,0.30
2014,02,15,03,47,1.70
2014,02,15,03,48,3.20
2014,02,15,03,49,5.10
2014,02,15,03,50,6.10
2014,02,15,03,51,1.70
2014,02,15,03,52,1.60
2014,02,15,03,53,3.20
2014,02,15,03,54,0.20
2014,02,15,03,55,0.20
2014,02,15,03,56,1.90
2014,02,15,03,57,1.90
2014,02,15,03,58,2.00
2014,02,15,03,59,3.90
2014,02,15,04,00,3.60
2014,02,15,04,01,2.60
2014,02,15,04,02,4.40
2014,02,15,04,03,6.70
2014,02,15,04,04,5.70
2014,02,15,04,05,4.20
2014,02,15,04,06,5.60
2014,02,15,04,07,6.80
2014,02,15,04,08,3.90
2014,02,15,04,09,4.80
2014,02,15,04,10,4.70
2014,02,15,04,11,6.40
2014,02,15,04,12,10.80
2014,02,15,04,13,1.00
2014,02,15,04,14,3.30
2014,02,15,04,15,5.90
2014,02,15,04,16,4.90
2014,02,15,04,17,5.50
2014,02,15,04,18,6.00
2014,02,15,04,19,5.60
2014,02,15,04,20,3.90
2014,02,15,04,21,2.40
2014,02,15,04,22,1.60
2014,02,15,04,23,6.50
2014,02,15,04,24,6.90
2014,02,15,04,25,5.70
2014,02,15,04,26,2.40
2014,02,15,04,27,3.30
2014,02,15,04,28,1.00
2014,02,15,04,29,5.20
2014,02,15,04,30,1.90
2014,02,15,04,31,2.50
2014,02,15,04,32,4.60
2014,02,15,04,33,1.00
2014,02,15,04,34,4.40
2014,02,15,04,35,8.20
2014,02,15,04,36,2.20
2014,02,15,04,37,3.00
2014,02,15,04,38,4.00
2014,02,15,04,39,3.40
2014,02,15,04,40,2.50
2014,02,15,04,41,1.80
2014,02,15,04,42,1.90
2014,02,15,04,43,2.40
2014,02,15,04,44,3.10
2014,02,15,04,45,2.30
2014,02,15,04,46,3.50
2014,02,15,04,47,1.40
2014,02,15,04,48,1.30
2014,02,15,04,49,3.40
2014,02,15,04,50,4.80
2014,02,15,04,51,4.80
2014,02,15,04,52,3.80
2014,02,15,04,53,2.00
2014,02,15,04,54,1.20
2014,02,15,04,55,3.40
2014,02,15,04,56,6.80
2014,02,15,04,57,5.60
2014,02,15,04,58,2.90
2014,02,15,04,59,5.90
2014,02,15,05,00,5.70
2014,02,15,05,01,7.80
2014,02,15,05,02,8.40
2014,02,15,05,03,3.60
2014,02,15,05,04,5.40
2014,02,15,05,05,4.40
2014,02,15,05,06,3.60
2014,02,15,05,07,3.50
2014,02,15,05,08,4.30
2014,02,15,05,09,3.90
2014,02,15,05,10,4.20
2014,02,15,05,11,2.00
2014,02,15,05,12,2.80
2014,02,15,05,13,1.90
2014,02,15,05,14,1.70
2014,02,15,05,15,2.20
2014,02,15,05,16,4.30
2014,02,15,05,17,2.90
2014,02,15,05,18,3.60
2014,02,15,05,19,3.80
2014,02,15,05,20,2.30
2014,02,15,05,21,5.60
2014,02,15,05,22,5.50
2014,02,15,05,23,2.70
2014,02,15,05,24,2.00
2014,02,15,05,25,2.10
2014,02,15,05,26,3.80
2014,02,15,05,27,2.80
2014,02,15,05,28,2.60
2014,02,15,05,29,3.10
2014,02,15,05,30,3.90
2014,02,15,05,31,4.40
2014,02,15,05,32,5.20
2014,02,15,05,33,2.10
2014,02,15,05,34,2.40
2014,02,15,05,35,4.90
2014,02,15,05,36,4.60
2014,02,15,05,37,5.20
2014,02,15,05,38,3.80
2014,02,15,05,39,4.80
2014,02,15,05,40,5.20
2014,02,15,05,41,6.70
2014,02,15,05,42,6.80
2014,02,15,05,43,2.30
2014,02,15,05,44,5.20
2014,02,15,05,45,6.20
2014,02,15,05,46,3.70
2014,02,15,05,47,1.50
2014,02,15,05,48,6.80
2014,02,15,05,49,4.80
2014,02,15,05,50,3.90
2014,02,15,05,51,5.50
2014,02,15,05,52,3.90
2014,02,15,05,53,6.80
2014,02,15,05,54,4.70
2014,02,15,05,55,4.70
2014,02,15,05,56,6.80
2014,02,15,05,57,5.00
2014,02,15,05,58,3.90
2014,02,15,05,59,6.00
2014,02,15,06,00,4.00
2014,02,15,06,01,4.50
2014,02,15,06,02,2.70
2014,02,15,06,03,2.30
2014,02,15,06,04,6.00
2014,02,15,06,05,6.20
2014,02,15,06,06,8.90
2014,02,15,06,07,5.20
2014,02,15,06,08,5.20
2014,02,15,06,09,4.90
2014,02,15,06,10,5.30
2014,02,15,06,11,4.10
2014,02,15,06,12,5.90
2014,02,15,06,13,3.00
2014,02,15,06,14,3.90
2014,02,15,06,15,4.60
2014,02,15,06,16,4.40
2014,02,15,06,17,3.40
2014,02,15,06,18,4.10
2014,02,15,06,19,4.70
2014,02,15,06,20,3.00
2014,02,15,06,21,6.40
2014,02,15,06,22,7.10
2014,02,15,06,23,6.30
2014,02,15,06,24,4.20
2014,02,15,06,25,6.40
2014,02,15,06,26,7.50
2014,02,15,06,27,7.00
2014,02,15,06,28,7.70
2014,02,15,06,29,9.70
2014,02,15,06,30,5.80
2014,02,15,06,31,5.50
2014,02,15,06,32,5.10
2014,02,15,06,33,5.20
2014,02,15,06,34,6.00
2014,02,15,06,35,6.60
2014,02,15,06,36,4.60
2014,02,15,06,37,4.90
2014,02,15,06,38,2.70
2014,02,15,06,39,5.70
2014,02,15,06,40,4.60
2014,02,15,06,41,4.50
2014,02,15,06,42,6.80
2014,02,15,06,43,3.70
2014,02,15,06,44,3.90
2014,02,15,06,45,4.60
2014,02,15,06,46,8.20
2014,02,15,06,47,5.30
2014,02,15,06,48,4.30
2014,02,15,06,49,4.00
2014,02,15,06,50,7.40
2014,02,15,06,51,5.90
2014,02,15,06,52,6.40
2014,02,15,06,53,6.90
2014,02,15,06,54,5.40
2014,02,15,06,55,4.70
2014,02,15,06,56,2.10
2014,02,15,06,57,5.40
2014,02,15,06,58,6.40
2014,02,15,06,59,5.30
2014,02,15,07,00,5.10
2014,02,15,07,01,6.00
2014,02,15,07,02,6.30
2014,02,15,07,03,4.30
2014,02,15,07,04,3.50
2014,02,15,07,05,4.70
2014,02,15,07,06,6.70
2014,02,15,07,07,4.40
2014,02,15,07,08,4.30
2014,02,15,07,09,4.50
2014,02,15,07,10,11.20
2014,02,15,07,11,6.20
2014,02,15,07,12,9.20
2014,02,15,07,13,9.10
2014,02,15,07,14,6.50
2014,02,15,07,15,4.70
2014,02,15,07,16,4.70
2014,02,15,07,17,7.60
2014,02,15,07,18,5.00
2014,02,15,07,19,10.30
2014,02,15,07,20,7.00
2014,02,15,07,21,4.50
2014,02,15,07,22,4.10
2014,02,15,07,23,0.80
2014,02,15,07,24,1.40
2014,02,15,07,25,3.00
2014,02,15,07,26,3.90
2014,02,15,07,27,2.50
2014,02,15,07,28,2.70
2014,02,15,07,29,3.70
2014,02,15,07,30,4.00
2014,02,15,07,31,4.10
2014,02,15,07,32,5.50
2014,02,15,07,33,3.90
2014,02,15,07,34,5.10
2014,02,15,07,35,3.00
2014,02,15,07,36,4.10
2014,02,15,07,37,3.50
2014,02,15,07,38,4.40
2014,02,15,07,39,6.60
2014,02,15,07,40,5.80
2014,02,15,07,41,3.90
2014,02,15,07,42,4.30
2014,02,15,07,43,7.70
2014,02,15,07,44,7.00
2014,02,15,07,45,3.80
2014,02,15,07,46,5.90
2014,02,15,07,47,4.80
2014,02,15,07,48,6.40
2014,02,15,07,49,5.50
2014,02,15,07,50,4.30
2014,02,15,07,51,5.00
2014,02,15,07,52,1.90
2014,02,15,07,53,8.30
2014,02,15,07,54,4.70
2014,02,15,07,55,5.00
2014,02,15,07,56,6.90
2014,02,15,07,57,5.20
2014,02,15,07,58,7.50
2014,02,15,07,59,8.00
2014,02,15,08,00,7.30
2014,02,15,08,01,2.50
2014,02,15,08,02,1.90
2014,02,15,08,03,6.00
2014,02,15,08,04,6.50
2014,02,15,08,05,6.00
2014,02,15,08,06,4.10
2014,02,15,08,07,1.20
2014,02,15,08,08,5.50
2014,02,15,08,09,4.50
2014,02,15,08,10,8.00
2014,02,15,08,11,6.10
2014,02,15,08,12,5.00
2014,02,15,08,13,3.70
2014,02,15,08,14,6.60
2014,02,15,08,15,3.50
2014,02,15,08,16,2.90
2014,02,15,08,17,5.40
2014,02,15,08,18,4.20
2014,02,15,08,19,5.80
2014,02,15,08,20,5.80
2014,02,15,08,21,2.90
2014,02,15,08,22,3.80
2014,02,15,08,23,5.40
2014,02,15,08,24,5.80
2014,02,15,08,25,7.10
2014,02,15,08,26,7.60
2014,02,15,08,27,9.30
2014,02,15,08,28,2.00
2014,02,15,08,29,8.10
2014,02,15,08,30,7.80
2014,02,15,08,31,5.10
2014,02,15,08,32,7.20
2014,02,15,08,33,5.80
2014,02,15,08,34,3.20
2014,02,15,08,35,1.90
2014,02,15,08,36,1.90
2014,02,15,08,37,4.90
2014,02,15,08,38,2.30
2014,02,15,08,39,6.60
2014,02,15,08,40,5.30
2014,02,15,08,41,3.10
2014,02,15,08,42,3.50
2014,02,15,08,43,6.00
2014,02,15,08,44,3.80
2014,02,15,08,45,2.20
2014,02,15,08,46,7.70
2014,02,15,08,47,3.30
2014,02,15,08,48,4.30
2014,02,15,08,49,4.10
2014,02,15,08,50,4.80
2014,02,15,08,51,2.50
2014,02,15,08,52,8.80
2014,02,15,08,53,3.40
2014,02,15,08,54,2.80
2014,02,15,08,55,2.30
2014,02,15,08,56,7.60
2014,02,15,08,57,6.70
2014,02,15,08,58,6.00
2014,02,15,08,59,3.90
2014,02,15,09,00,3.70
2014,02,15,09,01,2.80
2014,02,15,09,02,3.60
2014,02,15,09,03,5.60
2014,02,15,09,04,5.60
2014,02,15,09,05,6.70
2014,02,15,09,06,3.60
2014,02,15,09,07,0.90
2014,02,15,09,08,2.80
2014,02,15,09,09,5.60
2014,02,15,09,10,2.70
2014,02,15,09,11,2.70
2014,02,15,09,12,4.30
2014,02,15,09,13,2.20
2014,02,15,09,14,3.70
2014,02,15,09,15,2.90
2014,02,15,09,16,6.00
2014,02,15,09,17,3.20
2014,02,15,09,18,3.60
2014,02,15,09,19,1.80
2014,02,15,09,20,3.50
2014,02,15,09,21,0.30
2014,02,15,09,22,2.30
2014,02,15,09,23,2.70
2014,02,15,09,24,3.40
2014,02,15,09,25,3.10
2014,02,15,09,26,3.50
2014,02,15,09,27,4.30
2014,02,15,09,28,3.70
2014,02,15,09,29,1.90
2014,02,15,09,30,2.10
2014,02,15,09,31,4.70
2014,02,15,09,32,1.50
2014,02,15,09,33,3.00
2014,02,15,09,34,1.30
2014,02,15,09,35,0.80
2014,02,15,09,36,1.00
2014,02,15,09,37,1.90
2014,02,15,09,38,0.60
2014,02,15,09,39,0.20
2014,02,15,09,40,1.60
2014,02,15,09,41,0.60
2014,02,15,09,42,0.00
2014,02,15,09,43,2.20
2014,02,15,09,44,2.00
2014,02,15,09,45,2.10
2014,02,15,09,46,4.50
2014,02,15,09,47,1.20
2014,02,15,09,48,1.60
2014,02,15,09,49,3.10
2014,02,15,09,50,3.30
2014,02,15,09,51,1.70
2014,02,15,09,52,1.20
2014,02,15,09,53,0.20
2014,02,15,09,54,1.80
2014,02,15,09,55,1.00
2014,02,15,09,56,0.00
2014,02,15,09,57,5.20
2014,02,15,09,58,1.00
2014,02,15,09,59,1.90
2014,02,15,10,00,0.90
2014,02,15,10,01,0.20
2014,02,15,10,02,0.60
2014,02,15,10,03,0.60
2014,02,15,10,04,1.60
2014,02,15,10,05,0.70
2014,02,15,10,06,2.50
2014,02,15,10,07,3.40
2014,02,15,10,08,1.50
2014,02,15,10,09,3.10
2014,02,15,10,10,1.70
2014,02,15,10,11,2.20
2014,02,15,10,12,0.80
2014,02,15,10,13,0.90
2014,02,15,10,14,2.50
2014,02,15,10,15,0.40
2014,02,15,10,16,0.00
2014,02,15,10,17,0.00
2014,02,15,10,18,3.00
2014,02,15,10,19,2.60
2014,02,15,10,20,1.20
2014,02,15,10,21,6.30
2014,02,15,10,22,3.10
2014,02,15,10,23,0.30
2014,02,15,10,24,2.80
2014,02,15,10,25,4.30
2014,02,15,10,26,4.20
2014,02,15,10,27,2.20
2014,02,15,10,28,1.00
2014,02,15,10,29,1.80
2014,02,15,10,30,1.10
2014,02,15,10,31,1.90
2014,02,15,10,32,1.30
2014,02,15,10,33,2.40
2014,02,15,10,34,1.70
2014,02,15,10,35,3.90
2014,02,15,10,36,2.00
2014,02,15,10,37,5.30
2014,02,15,10,38,3.40
2014,02,15,10,39,0.90
2014,02,15,10,40,1.50
2014,02,15,10,41,3.60
2014,02,15,10,42,2.00
2014,02,15,10,43,1.10
2014,02,15,10,44,2.40
2014,02,15,10,45,2.80
2014,02,15,10,46,2.00
2014,02,15,10,47,0.80
2014,02,15,10,48,0.10
2014,02,15,10,49,2.50
2014,02,15,10,50,2.50
2014,02,15,10,51,3.20
2014,02,15,10,52,3.60
2014,02,15,10,53,5.30
2014,02,15,10,54,8.40
2014,02,15,10,55,7.70
2014,02,15,10,56,6.80
2014,02,15,10,57,5.90
2014,02,15,10,58,7.30
2014,02,15,10,59,5.80
2014,02,15,11,00,2.40
2014,02,15,11,01,3.70
2014,02,15,11,02,5.50
2014,02,15,11,03,5.60
2014,02,15,11,04,8.80
2014,02,15,11,05,2.40
2014,02,15,11,06,2.80
2014,02,15,11,07,6.00
2014,02,15,11,08,4.20
2014,02,15,11,09,2.80
2014,02,15,11,10,3.60
2014,02,15,11,11,8.00
2014,02,15,11,12,9.70
2014,02,15,11,13,8.00
2014,02,15,11,14,7.80
2014,02,15,11,15,9.10
2014,02,15,11,16,5.40
2014,02,15,11,17,10.60
2014,02,15,11,18,5.40
2014,02,15,11,19,10.40
2014,02,15,11,20,8.90
2014,02,15,11,21,5.60
2014,02,15,11,22,6.90
2014,02,15,11,23,6.40
2014,02,15,11,24,7.10
2014,02,15,11,25,2.70
2014,02,15,11,26,1.50
2014,02,15,11,27,6.80
2014,02,15,11,28,4.80
2014,02,15,11,29,7.50
2014,02,15,11,30,3.80
2014,02,15,11,31,6.10
2014,02,15,11,32,6.00
2014,02,15,11,33,4.80
2014,02,15,11,34,4.70
2014,02,15,11,35,7.20
2014,02,15,11,36,3.50
2014,02,15,11,37,3.30
2014,02,15,11,38,6.20
2014,02,15,11,39,5.50
2014,02,15,11,40,6.40
2014,02,15,11,41,7.20
2014,02,15,11,42,10.80
2014,02,15,11,43,7.00
2014,02,15,11,44,7.30
2014,02,15,11,45,7.50
2014,02,15,11,46,7.00
2014,02,15,11,47,6.30
2014,02,15,11,48,6.40
2014,02,15,11,49,6.40
2014,02,15,11,50,5.30
2014,02,15,11,51,0.80
2014,02,15,11,52,2.40
2014,02,15,11,53,7.30
2014,02,15,11,54,6.90
2014,02,15,11,55,7.80
2014,02,15,11,56,6.00
2014,02,15,11,57,5.10
2014,02,15,11,58,6.90
2014,02,15,11,59,6.00
2014,02,15,12,00,4.00
2014,02,15,12,01,6.40
2014,02,15,12,02,5.80
2014,02,15,12,03,9.30
2014,02,15,12,04,4.20
2014,02,15,12,05,3.00
2014,02,15,12,06,4.50
2014,02,15,12,07,4.50
2014,02,15,12,08,6.50
2014,02,15,12,09,5.60
2014,02,15,12,10,3.90
2014,02,15,12,11,1.50
2014,02,15,12,12,7.20
2014,02,15,12,13,1.40
2014,02,15,12,14,6.30
2014,02,15,12,15,5.00
2014,02,15,12,16,7.20
2014,02,15,12,17,3.70
2014,02,15,12,18,8.80
2014,02,15,12,19,4.80
2014,02,15,12,20,11.30
2014,02,15,12,21,7.10
2014,02,15,12,22,6.80
2014,02,15,12,23,2.50
2014,02,15,12,24,1.60
2014,02,15,12,25,2.60
2014,02,15,12,26,4.00
2014,02,15,12,27,0.60
2014,02,15,12,28,9.50
2014,02,15,12,29,6.10
2014,02,15,12,30,1.30
2014,02,15,12,31,5.10
2014,02,15,12,32,3.90
2014,02,15,12,33,3.90
2014,02,15,12,34,2.60
2014,02,15,12,35,2.80
2014,02,15,12,36,3.00
2014,02,15,12,37,6.50
2014,02,15,12,38,8.50
2014,02,15,12,39,3.70
2014,02,15,12,40,8.70
2014,02,15,12,41,2.70
2014,02,15,12,42,3.90
2014,02,15,12,43,5.00
2014,02,15,12,44,8.50
2014,02,15,12,45,4.90
2014,02,15,12,46,3.50
2014,02,15,12,47,2.50
2014,02,15,12,48,4.90
2014,02,15,12,49,6.70
2014,02,15,12,50,2.70
2014,02,15,12,51,2.60
2014,02,15,12,52,9.30
2014,02,15,12,53,6.70
2014,02,15,12,54,8.50
2014,02,15,12,55,4.80
2014,02,15,12,56,9.90
2014,02,15,12,57,6.50
2014,02,15,12,58,11.80
2014,02,15,12,59,6.70
2014,02,15,13,00,7.00
2014,02,15,13,01,7.40
2014,02,15,13,02,5.50
2014,02,15,13,03,12.40
2014,02,15,13,04,6.50
2014,02,15,13,05,1.00
2014,02,15,13,06,5.70
2014,02,15,13,07,4.90
2014,02,15,13,08,9.70
2014,02,15,13,09,5.10
2014,02,15,13,10,9.40
2014,02,15,13,11,11.60
2014,02,15,13,12,10.20
2014,02,15,13,13,5.50
2014,02,15,13,14,11.20
2014,02,15,13,15,6.20
2014,02,15,13,16,8.40
2014,02,15,13,17,5.40
2014,02,15,13,18,12.60
2014,02,15,13,19,7.90
2014,02,15,13,20,6.30
2014,02,15,13,21,5.90
2014,02,15,13,22,6.80
2014,02,15,13,23,7.40
2014,02,15,13,24,4.90
2014,02,15,13,25,9.30
2014,02,15,13,26,11.00
2014,02,15,13,27,9.80
2014,02,15,13,28,7.10
2014,02,15,13,29,7.90
2014,02,15,13,30,6.00
2014,02,15,13,31,4.40
2014,02,15,13,32,8.00
2014,02,15,13,33,10.30
2014,02,15,13,34,6.40
2014,02,15,13,35,10.90
2014,02,15,13,36,8.00
2014,02,15,13,37,7.90
2014,02,15,13,38,5.10
2014,02,15,13,39,5.10
2014,02,15,13,40,9.20
2014,02,15,13,41,7.00
2014,02,15,13,42,11.40
2014,02,15,13,43,8.60
2014,02,15,13,44,6.70
2014,02,15,13,45,5.30
2014,02,15,13,46,10.90
2014,02,15,13,47,11.70
2014,02,15,13,48,8.10
2014,02,15,13,49,9.60
2014,02,15,13,50,9.60
2014,02,15,13,51,9.40
2014,02,15,13,52,7.50
2014,02,15,13,53,4.30
2014,02,15,13,54,4.10
2014,02,15,13,55,6.00
2014,02,15,13,56,6.70
2014,02,15,13,57,4.80
2014,02,15,13,58,4.70
2014,02,15,13,59,2.60
2014,02,15,14,00,1.10
2014,02,15,14,01,6.40
2014,02,15,14,02,3.60
2014,02,15,14,03,7.10
2014,02,15,14,04,6.40
2014,02,15,14,05,8.10
2014,02,15,14,06,8.90
2014,02,15,14,07,8.40
2014,02,15,14,08,3.40
2014,02,15,14,09,4.20
2014,02,15,14,10,5.30
2014,02,15,14,11,5.00
2014,02,15,14,12,5.30
2014,02,15,14,13,5.60
2014,02,15,14,14,5.10
2014,02,15,14,15,5.90
2014,02,15,14,16,6.80
2014,02,15,14,17,5.00
2014,02,15,14,18,2.20
2014,02,15,14,19,3.40
2014,02,15,14,20,2.90
2014,02,15,14,21,8.20
2014,02,15,14,22,9.80
2014,02,15,14,23,11.50
2014,02,15,14,24,4.00
2014,02,15,14,25,12.10
2014,02,15,14,26,13.80
2014,02,15,14,27,8.10
2014,02,15,14,28,7.10
2014,02,15,14,29,10.40
2014,02,15,14,30,9.90
2014,02,15,14,31,13.20
2014,02,15,14,32,8.60
2014,02,15,14,33,10.80
2014,02,15,14,34,8.50
2014,02,15,14,35,9.40
2014,02,15,14,36,11.90
2014,02,15,14,37,7.10
2014,02,15,14,38,5.40
2014,02,15,14,39,6.30
2014,02,15,14,40,8.00
2014,02,15,14,41,6.00
2014,02,15,14,42,8.40
2014,02,15,14,43,6.80
2014,02,15,14,44,5.30
2014,02,15,14,45,8.40
2014,02,15,14,46,7.70
2014,02,15,14,47,7.50
2014,02,15,14,48,11.90
2014,02,15,14,49,11.10
2014,02,15,14,50,7.50
2014,02,15,14,51,6.90
2014,02,15,14,52,8.50
2014,02,15,14,53,9.10
2014,02,15,14,54,4.70
2014,02,15,14,55,4.50
2014,02,15,14,56,6.80
2014,02,15,14,57,3.40
2014,02,15,14,58,7.20
2014,02,15,14,59,7.00
2014,02,15,15,00,4.00
2014,02,15,15,01,4.00
2014,02,15,15,02,6.50
2014,02,15,15,03,10.10
2014,02,15,15,04,4.90
2014,02,15,15,05,7.70
2014,02,15,15,06,7.80
2014,02,15,15,07,7.50
2014,02,15,15,08,5.20
2014,02,15,15,09,3.60
2014,02,15,15,10,4.70
2014,02,15,15,11,6.00
2014,02,15,15,12,4.40
2014,02,15,15,13,9.20
2014,02,15,15,14,6.80
2014,02,15,15,15,7.30
2014,02,15,15,16,8.40
2014,02,15,15,17,8.20
2014,02,15,15,18,8.20
2014,02,15,15,19,9.70
2014,02,15,15,20,7.30
2014,02,15,15,21,10.40
2014,02,15,15,22,7.20
2014,02,15,15,23,9.20
2014,02,15,15,24,9.80
2014,02,15,15,25,9.90
2014,02,15,15,26,10.00
2014,02,15,15,27,8.60
2014,02,15,15,28,11.00
2014,02,15,15,29,5.30
2014,02,15,15,30,12.20
2014,02,15,15,31,5.10
2014,02,15,15,32,6.40
2014,02,15,15,33,10.20
2014,02,15,15,34,8.10
2014,02,15,15,35,4.10
2014,02,15,15,36,5.10
2014,02,15,15,37,11.50
2014,02,15,15,38,10.50
2014,02,15,15,39,12.30
2014,02,15,15,40,9.80
2014,02,15,15,41,9.80
2014,02,15,15,42,7.20
2014,02,15,15,43,7.60
2014,02,15,15,44,8.30
2014,02,15,15,45,11.20
2014,02,15,15,46,9.70
2014,02,15,15,47,11.50
2014,02,15,15,48,7.50
2014,02,15,15,49,6.80
2014,02,15,15,50,8.90
2014,02,15,15,51,12.00
2014,02,15,15,52,11.00
2014,02,15,15,53,2.30
2014,02,15,15,54,4.80
2014,02,15,15,55,4.90
2014,02,15,15,56,6.90
2014,02,15,15,57,8.20
2014,02,15,15,58,8.30
2014,02,15,15,59,4.80
2014,02,15,16,00,7.20
2014,02,15,16,01,9.30
2014,02,15,16,02,9.30
2014,02,15,16,03,7.20
2014,02,15,16,04,6.30
2014,02,15,16,05,6.90
2014,02,15,16,06,4.30
2014,02,15,16,07,4.60
2014,02,15,16,08,4.20
2014,02,15,16,09,4.00
2014,02,15,16,10,4.80
2014,02,15,16,11,5.50
2014,02,15,16,12,3.50
2014,02,15,16,13,6.10
2014,02,15,16,14,6.10
2014,02,15,16,15,7.70
2014,02,15,16,16,5.90
2014,02,15,16,17,4.50
2014,02,15,16,18,8.50
2014,02,15,16,19,13.60
2014,02,15,16,20,8.40
2014,02,15,16,21,7.20
2014,02,15,16,22,9.90
2014,02,15,16,23,6.10
2014,02,15,16,24,9.70
2014,02,15,16,25,13.20
2014,02,15,16,26,5.90
2014,02,15,16,27,5.40
2014,02,15,16,28,9.90
2014,02,15,16,29,8.80
2014,02,15,16,30,8.90
2014,02,15,16,31,10.40
2014,02,15,16,32,5.50
2014,02,15,16,33,2.10
2014,02,15,16,34,6.90
2014,02,15,16,35,4.70
2014,02,15,16,36,2.30
2014,02,15,16,37,4.40
2014,02,15,16,38,3.90
2014,02,15,16,39,5.40
2014,02,15,16,40,6.40
2014,02,15,16,41,1.50
2014,02,15,16,42,3.70
2014,02,15,16,43,5.40
2014,02,15,16,44,7.20
2014,02,15,16,45,7.90
2014,02,15,16,46,5.60
2014,02,15,16,47,5.10
2014,02,15,16,48,5.10
2014,02,15,16,49,5.30
2014,02,15,16,50,3.60
2014,02,15,16,51,2.90
2014,02,15,16,52,4.60
2014,02,15,16,53,3.10
2014,02,15,16,54,5.80
2014,02,15,16,55,7.80
2014,02,15,16,56,4.80
2014,02,15,16,57,4.10
2014,02,15,16,58,4.00
2014,02,15,16,59,10.20
2014,02,15,17,00,11.60
2014,02,15,17,01,14.20
2014,02,15,17,02,15.30
2014,02,15,17,03,14.10
2014,02,15,17,04,15.80
2014,02,15,17,05,9.90
2014,02,15,17,06,7.60
2014,02,15,17,07,13.80
2014,02,15,17,08,12.70
2014,02,15,17,09,12.40
2014,02,15,17,10,10.90
2014,02,15,17,11,8.60
2014,02,15,17,12,10.50
2014,02,15,17,13,12.80
2014,02,15,17,14,13.90
2014,02,15,17,15,14.90
2014,02,15,17,16,11.70
2014,02,15,17,17,11.70
2014,02,15,17,18,11.30
2014,02,15,17,19,16.40
2014,02,15,17,20,18.30
2014,02,15,17,21,14.60
2014,02,15,17,22,22.50
2014,02,15,17,23,18.30
2014,02,15,17,24,17.60
2014,02,15,17,25,13.30
2014,02,15,17,26,13.70
2014,02,15,17,27,16.60
2014,02,15,17,28,16.60
2014,02,15,17,29,19.00
2014,02,15,17,30,17.80
2014,02,15,17,31,17.80
2014,02,15,17,32,15.60
2014,02,15,17,33,18.00
2014,02,15,17,34,13.50
2014,02,15,17,35,13.60
2014,02,15,17,36,21.90
2014,02,15,17,37,14.70
2014,02,15,17,38,13.40
2014,02,15,17,39,14.20
2014,02,15,17,40,16.10
2014,02,15,17,41,15.70
2014,02,15,17,42,18.60
2014,02,15,17,43,14.40
2014,02,15,17,44,18.50
2014,02,15,17,45,17.70
2014,02,15,17,46,14.90
2014,02,15,17,47,13.90
2014,02,15,17,48,14.80
2014,02,15,17,49,11.40
2014,02,15,17,50,11.70
2014,02,15,17,51,18.60
2014,02,15,17,52,17.70
2014,02,15,17,53,15.40
2014,02,15,17,54,16.10
2014,02,15,17,55,13.00
2014,02,15,17,56,11.80
2014,02,15,17,57,13.50
2014,02,15,17,58,12.50
2014,02,15,17,59,8.50
2014,02,15,18,00,7.80
2014,02,15,18,01,14.60
2014,02,15,18,02,7.50